This demonstration page uses our WeatherBlox Daily Observations layout. Learn more.

Left ArrowRight Arrow

39.29038, -76.61219

Hourly Observations for March 20, 2015

Temp ( °F °C ) Dew Point ( °F °C ) Humidity (%) Winds ( mph kmh ) Pressure ( in mb ) Visibility ( mi km ) Precip ( " mm )
12:54 am 00:54 undefined 40 4.4 27 -2.8 60 60 undefined N/A 30.30 1026 N/A 0.00 0.00
1:54 am 01:54 undefined 40 4.4 29 -1.7 65 65 undefined N/A 30.28 1025 N/A 0.00 0.00
2:54 am 02:54 undefined 40 4.4 29 -1.7 65 65 undefined N/A 30.27 1025 N/A 0.00 0.00
3:54 am 03:54 undefined 39 3.9 29 -1.7 67 67 undefined N/A 30.27 1025 N/A 0.00 0.00
4:54 am 04:54 undefined 38 3.3 30 -1.1 73 73 undefined N/A 30.26 1025 N/A 0.00 0.00
5:54 am 05:54 undefined 36 2.2 32 0 86 86 undefined N/A 30.26 1025 N/A 0.02 0.51
6:54 am 06:54 undefined 33 0.6 32 0 96 96 undefined N/A 30.25 1024 N/A 0.07 1.78
7:54 am 07:54 undefined 33 0.6 32 0 96 96 undefined N/A 30.26 1025 N/A 0.07 1.78
8:54 am 08:54 undefined 33 0.6 32 0 96 96 undefined N/A 30.25 1024 N/A 0.04 1.02
9:54 am 09:54 undefined 33 0.6 32 0 96 96 undefined N/A 30.25 1024 N/A 0.05 1.27
10:54 am 10:54 undefined 34 1.1 32 0 92 92 undefined N/A 30.23 1024 N/A 0.03 0.76
11:54 am 11:54 undefined 34 1.1 32 0 92 92 undefined N/A 30.22 1023 N/A 0.05 1.27
12:54 pm 12:54 undefined 34 1.1 32 0 92 92 undefined N/A 30.19 1022 N/A 0.08 2.03
1:54 pm 13:54 undefined 34 1.1 32 0 92 92 undefined N/A 30.16 1021 N/A 0.04 1.02
2:54 pm 14:54 undefined 34 1.1 31 -0.6 89 89 undefined N/A 30.13 1020 N/A 0.04 1.02
3:54 pm 15:54 undefined 35 1.7 32 0 89 89 undefined N/A 30.11 1020 N/A 0.01 0.25
4:54 pm 16:54 undefined 35 1.7 32 0 89 89 undefined N/A 30.09 1019 N/A 0.02 0.51
5:54 pm 17:54 undefined 36 2.2 32 0 86 86 undefined N/A 30.10 1019 N/A 0.00 0.00
6:54 pm 18:54 undefined 36 2.2 33 0.6 89 89 undefined N/A 30.10 1019 N/A 0.00 0.00
7:54 pm 19:54 undefined 36 2.2 32 0 86 86 undefined N/A 30.11 1020 N/A 0.00 0.00
8:54 pm 20:54 undefined 36 2.2 32 0 86 86 undefined N/A 30.13 1020 N/A 0.00 0.00
9:54 pm 21:54 undefined 37 2.8 32 0 82 82 undefined N/A 30.14 1021 N/A 0.00 0.00
10:54 pm 22:54 undefined 36 2.2 32 0 86 86 undefined N/A 30.14 1021 N/A 0.00 0.00
11:54 pm 23:54 undefined 36 2.2 32 0 86 86 undefined N/A 30.14 1021 N/A 0.00 0.00

Powered by AerisWeather